This demonstration page uses our WeatherBlox Daily Observations layout. Learn more.

Left ArrowRight Arrow

41.12389, -100.76542

Hourly Observations for December 12, 2016

Temp ( °F °C ) Dew Point ( °F °C ) Humidity (%) Winds ( mph kmh ) Pressure ( in mb ) Visibility ( mi km ) Precip ( " mm )
12:53 am 00:53 Mostly Clear 12 -11.1 9 -12.8 87 87 SE 5 7 30.08 1019 10 16 0.00 0.00
1:53 am 01:53 Mostly Clear 13 -10.6 8 -13.3 81 81 ESE 7 11 30.05 1018 10 16 0.00 0.00
2:53 am 02:53 Cloudy 15 -9.4 10 -12.2 80 80 ESE 3 6 30.04 1017 10 16 0.00 0.00
3:53 am 03:53 Partly Cloudy 13 -10.6 8 -13.3 81 81 Calm 30.04 1017 10 16 0.00 0.00
4:53 am 04:53 Partly Cloudy 12 -11.1 8 -13.3 84 84 ENE 5 7 30.03 1017 10 16 0.00 0.00
5:53 am 05:53 Partly Cloudy 10 -12.2 5 -15 80 80 NW 3 6 30.04 1017 10 16 0.00 0.00
6:53 am 06:53 Partly Cloudy 10 -12.2 6 -14.4 84 84 Calm 30.05 1018 10 16 0.00 0.00
7:53 am 07:53 Clear 11 -11.7 7 -13.9 84 84 NE 3 6 30.05 1018 10 16 0.00 0.00
8:53 am 08:53 Sunny 18 -7.8 12 -11.1 77 77 Calm 30.04 1017 10 16 0.00 0.00
9:53 am 09:53 Sunny 28 -2.2 21 -6.1 75 75 Calm 30.03 1017 10 16 0.00 0.00
10:53 am 10:53 Sunny 37 2.8 24 -4.4 59 59 NW 5 7 30.03 1017 10 16 0.00 0.00
11:53 am 11:53 Sunny 44 6.7 24 -4.4 45 45 NW 6 9 29.98 1015 10 16 0.00 0.00
12:53 pm 12:53 Sunny 50 10 15 -9.4 25 25 W 15 24 29.94 1014 10 16 0.00 0.00
1:53 pm 13:53 Sunny 51 10.6 8 -13.3 17 17 WNW 13 20 29.91 1013 10 16 0.00 0.00
2:53 pm 14:53 Sunny 50 10 6 -14.4 17 17 WNW 12 19 29.90 1013 10 16 0.00 0.00
3:53 pm 15:53 Sunny 50 10 8 -13.3 18 18 NW 12 19 29.92 1013 10 16 0.00 0.00
4:32 pm 16:32 Sunny 37 3 16 -9 41 41 NNE 22 35 29.94 1014 10 16 0.00 0.00
4:53 pm 16:53 Sunny 31 -0.6 14 -10 49 49 NNE 22 35 30.01 1016 10 16 0.00 0.00
5:53 pm 17:53 Clear 24 -4.4 11 -11.7 57 57 VRB 6 9 30.11 1020 10 16 0.00 0.00
6:53 pm 18:53 Clear 19 -7.2 9 -12.8 65 65 NNE 8 13 30.17 1022 10 16 0.00 0.00
7:53 pm 19:53 Clear 15 -9.4 5 -15 64 64 NNE 12 19 30.20 1023 10 16 0.00 0.00
8:53 pm 20:53 Mostly Clear 13 -10.6 3 -16.1 64 64 NNE 12 19 30.21 1023 10 16 0.00 0.00
9:53 pm 21:53 Clear 10 -12.2 2 -16.7 69 69 NNE 7 11 30.22 1023 10 16 0.00 0.00
10:53 pm 22:53 Mostly Clear 10 -12.2 2 -16.7 69 69 NNE 6 9 30.21 1023 10 16 0.00 0.00
11:53 pm 23:53 Partly Cloudy 10 -12.2 3 -16.1 73 73 NNW 5 7 30.22 1023 10 16 0.00 0.00

Powered by AerisWeather